Temp
70 68 68 68 70 71 69 68 70 70 71 72 71 70 70 71 71 70 70 70 69 69 70 69 67 68 68 67 66 66 67 66 65 65 63 64 64 63 65 65 65 64 64 63 62 60 60 58 62 67 67 65 65 64 63 62 61 61 60 60 61 61 62
69 67 67 70 69 69 68 69 70 70 70 70 69 68 69 71 71 70 70 69 69 69 69 68 67 67 66 65 65 65 65 64 64 64 64 63 63 62 64 63 65 65 64 63 62 63 60 58 60 60 60 64 66 64 63 62 62 61 60 60 61 61 62
64 65 67 67 68 68 67 69 69 70 69 67 66 68 69 71 70 70 69 68 68 68 68 67 66 65 65 64 64 64 64 63 64 63 62 62 63 62 62 63 63 63 63 63 62 61 61 60 56 59 60 59 59 62 62 61 61 61 61 60 60 60 60
64 65 65 65 65 65 68 69 69 69 68 65 66 67 69 70 70 70 69 68 68 67 67 66 66 65 64 64 64 63 63 62 63 62 61 61 62 61 61 62 61 61 60 59 58 59 58 57 57 59 61 62 61 59 60 61 61 61 61 60 59 59 59
66 67 65 64 65 65 67 68 68 68 66 65 67 68 69 70 69 68 67 67 67 66 66 66 65 65 65 64 64 63 62 62 62 62 62 60 61 61 60 61 61 61 61 61 61 61 59 58 58 59 60 61 63 63 63 61 62 61 60 60 60 59 59
66 67 67 64 64 66 67 67 67 67 67 67 68 68 67 68 68 67 67 66 66 65 65 65 64 64 64 64 63 62 61 61 61 61 60 59 59 60 60 60 61 61 60 61 61 61 61 61 60 58 61 62 59 60 61 60 59 62 62 60 60 59 59
66 66 65 64 66 67 67 67 67 68 68 68 68 67 68 68 67 67 66 65 66 65 65 64 64 64 63 63 62 61 61 61 61 60 59 59 59 59 61 60 60 60 60 61 61 61 59 59 58 57 58 61 60 60 61 61 61 58 60 61 61 59 59
66 65 64 66 66 67 67 67 68 69 69 68 68 68 68 66 66 66 66 65 65 64 64 63 63 63 63 63 62 61 61 61 60 60 59 58 58 58 58 59 59 60 60 61 60 60 60 59 58 57 57 57 58 59 58 60 59 57 56 60 62 59 58
66 66 65 66 67 67 67 68 67 68 68 68 68 68 66 67 66 65 65 64 64 64 64 63 63 63 62 62 61 61 60 61 59 59 59 59 58 58 58 59 60 59 60 60 60 60 60 59 59 58 58 57 57 56 57 56 56 56 59 55 60 59 57
66 64 63 65 66 67 67 67 67 67 67 67 67 66 66 66 66 65 64 64 63 63 63 63 63 62 62 62 61 60 59 60 60 59 59 59 59 59 59 59 59 59 59 59 60 60 59 59 59 59 58 56 56 56 55 54 51 52 56 55 53 58 59
66 65 65 65 66 66 66 66 66 66 67 67 66 65 66 65 65 65 64 63 63 63 62 63 63 62 62 61 60 60 60 60 59 59 59 59 59 60 59 59 59 59 59 59 59 59 59 59 59 59 58 58 58 56 55 54 52 53 54 56 56 55 57
65 66 66 66 66 66 66 66 67 67 66 66 66 65 65 65 65 64 64 63 63 62 62 62 62 62 62 60 60 60 60 60 60 58 59 59 59 60 59 58 59 58 59 58 59 59 59 59 59 60 59 58 57 56 55 57 53 54 55 53 56 58 56
65 65 66 66 66 66 66 67 67 66 66 66 66 66 66 65 65 64 64 63 62 63 62 62 62 62 61 60 60 60 60 60 59 58 58 59 59 59 59 58 58 58 59 60 59 59 59 59 59 59 59 58 57 57 57 57 54 52 56 55 56 57 57
65 66 66 67 67 66 66 66 66 66 66 65 66 66 66 66 66 64 64 64 63 62 62 61 62 61 61 60 60 60 60 60 59 59 59 58 60 59 59 59 59 59 60 59 59 59 59 59 59 59 59 59 57 57 56 56 55 55 56 58 57 57 57
66 66 66 66 65 65 65 65 64 64 64 65 67 66 66 65 65 65 65 64 64 63 63 62 62 62 61 59 59 59 59 60 59 59 59 59 59 59 59 59 59 59 59 59 58 58 59 58 58 58 57 57 57 56 56 56 55 54 53 56 56 59 58
66 66 66 66 64 64 64 64 65 63 64 65 66 67 65 65 65 65 64 64 64 63 63 62 62 61 60 60 60 59 60 60 59 59 58 59 59 60 59 59 59 59 59 58 58 58 58 58 58 57 56 57 55 55 56 56 55 54 54 54 56 56 56
66 66 65 64 64 64 64 64 64 64 64 65 65 65 66 66 65 65 64 64 63 63 62 61 61 62 61 61 60 60 60 60 60 60 59 60 60 60 59 58 58 59 59 58 58 58 59 58 58 58 57 57 56 55 56 56 56 55 55 54 55 56 56
65 65 64 64 64 64 63 63 63 64 63 63 64 64 65 66 65 65 63 64 63 63 62 62 61 61 60 61 60 60 60 60 60 60 59 59 59 60 59 59 59 60 60 58 58 58 58 57 58 58 57 58 57 57 57 57 57 57 55 53 54 56 57
64 64 64 64 64 63 63 62 62 62 63 63 63 64 64 64 64 65 65 64 64 63 63 62 62 62 61 61 60 60 60 60 60 60 60 60 60 60 59 60 60 60 60 58 57 58 58 57 57 57 56 57 58 57 56 56 57 56 56 55 55 55 56
65 64 64 64 63 63 63 62 62 61 62 62 63 63 64 64 64 65 65 64 63 63 62 62 61 61 61 61 61 60 59 59 59 59 60 60 60 60 61 60 60 60 59 59 58 58 58 57 57 56 57 56 57 57 56 56 57 56 55 55 56 56 56
64 63 63 63 62 61 61 61 61 61 61 62 63 64 64 64 64 65 64 64 63 63 62 61 61 61 61 61 60 60 60 59 59 59 59 60 60 61 61 61 61 61 60 60 60 59 59 57 57 56 57 57 57 56 56 56 56 56 56 55 54 55 55
63 62 61 60 59 59 59 59 60 60 60 61 62 64 64 64 63 63 63 62 62 61 61 60 60 60 60 60 61 60 60 60 60 59 59 59 59 60 61 61 61 61 59 55 52 53 53 54 58 56 56 57 56 56 56 56 56 56 56 55 54 55 54
60 60 60 59 59 59 59 59 59 59 60 61 62 63 63 63 63 62 61 61 61 59 59 60 55 51 54 60 60 60 59 60 60 60 59 59 58 59 60 61 59 54 53 51 49 46 45 46 49 54 56 56 56 56 55 55 55 56 55 53 53 53 52
59 59 59 58 58 59 60 60 60 60 59 60 60 61 62 62 62 62 61 60 59 59 58 58 46 44 45 49 58 59 59 59 59 60 60 59 59 58 59 60 59 55 54 52 51 44 44 44 44 43 43 44 47 53 55 54 54 55 54 53 53 53 52
59 58 58 57 58 60 60 61 60 60 59 58 59 60 60 61 61 60 60 61 59 58 58 48 42 43 43 45 51 59 59 59 58 59 60 60 60 59 58 59 59 59 59 59 58 55 49 44 43 43 42 43 42 41 42 50 54 54 53 53 52 51 52
59 57 58 58 58 59 60 60 59 58 58 58 59 59 60 59 59 59 59 59 59 58 58 44 42 42 42 43 45 54 60 59 59 59 59 60 60 59 59 58 58 58 58 54 58 59 58 54 46 44 45 45 44 43 40 40 42 51 56 54 53 51 51
57 57 58 57 57 58 58 58 58 58 57 58 58 58 58 57 58 58 59 59 58 58 56 44 42 42 42 41 43 50 60 58 58 58 59 59 59 59 59 59 58 57 58 58 60 59 59 58 57 57 57 57 55 50 44 42 43 42 49 54 54 52 52
56 56 56 56 56 56 56 55 56 56 57 57 57 57 57 57 57 57 58 58 57 56 54 41 41 41 41 41 42 49 58 57 57 57 57 57 57 58 58 59 60 59 58 58 59 58 59 59 58 57 57 56 57 57 56 56 56 56 56 55 55 54 54
55 55 55 56 55 54 53 54 54 54 55 56 57 57 57 57 56 56 56 56 56 55 51 40 40 40 41 41 43 57 57 57 57 57 57 57 57 57 57 58 59 59 59 58 51 44 51 60 59 58 56 57 57 57 56 51 45 45 51 54 56 55 54
54 54 55 55 55 54 54 55 54 54 54 54 54 54 55 55 57 56 55 56 56 54 52 43 40 40 41 41 48 58 57 58 58 57 56 56 57 56 56 57 59 59 58 59 47 41 43 48 60 58 57 56 56 57 57 55 44 40 39 39 38 39 38
54 54 55 56 56 55 55 55 54 55 54 53 54 55 55 55 56 56 55 55 56 54 53 45 39 40 41 42 50 57 58 58 57 57 56 56 58 58 55 48 53 59 58 57 41 41 41 49 59 58 58 57 56 56 56 56 56 52 40 40 40 40 40
57 56 55 54 54 54 53 52 54 55 54 54 53 54 55 55 54 54 55 55 51 54 53 47 40 40 41 42 51 58 59 59 57 56 57 56 56 58 56 52 46 51 57 50 38 41 40 49 60 59 58 57 56 55 56 57 56 57 57 57 57 55 53
56 54 53 52 53 53 52 50 50 50 51 52 51 52 53 54 53 52 52 53 52 54 53 51 46 40 41 42 46 59 59 58 56 55 57 57 57 57 57 56 49 38 39 39 40 40 41 42 57 59 59 58 56 54 57 57 56 57 57 57 56 56 55
55 53 53 53 53 50 49 48 46 46 46 49 49 50 51 52 52 51 52 53 53 53 54 52 48 40 41 42 42 49 59 59 58 58 58 58 58 58 58 59 58 41 38 39 39 38 40 40 45 58 58 59 57 54 53 58 53 48 57 57 57 57 58
52 52 53 53 50 49 48 48 47 46 46 46 48 48 49 50 51 50 51 51 52 52 52 49 51 41 41 41 41 43 57 58 59 59 57 58 58 58 58 58 58 45 37 38 38 39 38 40 39 58 54 42 37 40 55 57 58 59 59 59 59 58 58
50 50 50 52 50 48 49 49 48 47 47 47 47 47 47 49 49 49 50 51 52 52 52 51 45 47 40 40 40 41 45 51 44 58 58 57 57 58 58 57 53 40 38 38 38 38 39 38 45 51 37 38 39 38 47 58 58 58 58 58 57 56 56
51 50 50 51 50 49 48 48 48 48 46 44 43 43 45 47 49 49 49 50 51 52 53 54 46 44 45 39 40 40 41 42 43 57 59 58 59 58 57 57 52 38 38 38 38 38 39 43 49 37 38 37 39 42 57 58 57 57 57 56 56 56 56
MSLP
1018.10 1018.70 1019.06 1019.34 1019.46 1019.62 1020.02 1020.18 1020.10 1020.10 1020.06 1020.06 1020.26 1020.46 1020.54 1020.62 1020.74 1020.94 1021.02 1021.10 1021.18 1021.22 1021.14 1021.18 1021.26 1021.30 1021.30 1021.34 1021.30 1021.22 1021.14 1021.18 1021.22 1021.30 1021.58 1021.54 1021.42 1021.62 1021.54 1021.46 1021.50 1021.62 1021.66 1021.66 1021.70 1021.66 1021.58 1021.54 1020.74 1020.50 1020.62 1020.70 1020.62 1020.94 1021.14 1021.26 1021.22 1021.14 1021.10 1020.86 1020.66 1020.38 1020.06
1018.06 1018.62 1019.02 1019.18 1019.54 1019.78 1020.14 1020.26 1020.22 1020.18 1020.26 1020.34 1020.46 1020.62 1020.70 1020.70 1020.86 1021.06 1021.14 1021.22 1021.34 1021.34 1021.26 1021.34 1021.50 1021.58 1021.62 1021.58 1021.50 1021.42 1021.46 1021.50 1021.50 1021.62 1021.66 1021.86 1021.82 1021.94 1021.62 1021.70 1021.58 1021.54 1021.62 1021.86 1021.86 1021.62 1021.70 1021.62 1021.14 1021.30 1021.14 1020.82 1020.54 1020.90 1021.14 1021.26 1021.34 1021.30 1021.22 1021.10 1020.90 1020.66 1020.30
1018.34 1018.74 1018.94 1019.26 1019.46 1019.74 1020.18 1020.30 1020.30 1020.34 1020.50 1020.70 1020.78 1020.78 1020.82 1020.86 1021.02 1021.18 1021.30 1021.46 1021.50 1021.50 1021.50 1021.62 1021.74 1021.82 1021.86 1021.86 1021.82 1021.74 1021.74 1021.74 1021.82 1021.94 1022.06 1022.10 1022.10 1022.22 1022.10 1021.94 1021.78 1021.70 1021.58 1021.62 1021.82 1021.90 1021.78 1021.78 1021.86 1021.38 1021.18 1021.18 1021.02 1020.94 1021.22 1021.38 1021.34 1021.34 1021.26 1021.22 1021.06 1020.86 1020.58
1018.14 1018.42 1018.86 1019.22 1019.38 1019.58 1019.82 1020.14 1020.34 1020.50 1020.70 1020.94 1020.94 1020.98 1020.98 1021.06 1021.22 1021.34 1021.50 1021.62 1021.66 1021.70 1021.70 1021.82 1021.90 1022.02 1022.06 1022.06 1022.06 1021.98 1021.98 1022.02 1022.10 1022.22 1022.34 1022.42 1022.30 1022.42 1022.42 1022.26 1022.30 1022.22 1022.18 1022.26 1022.34 1022.18 1022.14 1022.14 1021.82 1021.30 1021.02 1020.98 1020.94 1021.02 1021.30 1021.42 1021.42 1021.38 1021.38 1021.34 1021.30 1021.14 1020.90
1017.66 1018.06 1018.46 1018.98 1019.38 1019.54 1019.58 1019.98 1020.38 1020.58 1020.86 1020.98 1020.90 1020.98 1021.14 1021.18 1021.34 1021.58 1021.70 1021.82 1021.90 1021.90 1021.98 1021.98 1022.14 1022.18 1022.22 1022.22 1022.14 1022.14 1022.22 1022.34 1022.38 1022.38 1022.50 1022.66 1022.62 1022.66 1022.82 1022.74 1022.74 1022.66 1022.50 1022.34 1022.34 1022.38 1022.30 1022.26 1022.02 1021.46 1021.22 1021.06 1020.66 1020.98 1021.34 1021.42 1021.46 1021.42 1021.46 1021.50 1021.42 1021.38 1021.18
1017.38 1017.78 1018.30 1018.90 1019.18 1019.42 1019.46 1019.86 1020.30 1020.58 1020.82 1020.90 1020.94 1021.06 1021.26 1021.38 1021.50 1021.70 1021.86 1021.98 1022.10 1022.14 1022.18 1022.22 1022.38 1022.46 1022.42 1022.38 1022.42 1022.46 1022.58 1022.66 1022.74 1022.78 1022.90 1023.14 1023.10 1023.02 1023.06 1023.10 1022.98 1022.94 1023.02 1022.94 1022.82 1022.58 1022.42 1022.26 1022.10 1021.78 1021.30 1021.14 1021.18 1021.18 1021.38 1021.42 1021.46 1021.22 1021.46 1021.54 1021.58 1021.58 1021.38
1017.54 1017.86 1018.18 1018.58 1018.90 1019.10 1019.18 1019.70 1020.06 1020.34 1020.58 1020.74 1020.94 1021.10 1021.26 1021.42 1021.58 1021.78 1021.98 1022.14 1022.26 1022.30 1022.38 1022.50 1022.62 1022.66 1022.62 1022.58 1022.66 1022.74 1022.90 1022.98 1023.06 1023.18 1023.30 1023.42 1023.42 1023.42 1023.26 1023.22 1023.26 1023.26 1023.26 1023.18 1023.02 1022.86 1022.82 1022.54 1022.42 1022.26 1021.74 1021.26 1021.30 1021.10 1021.30 1021.30 1021.70 1021.54 1021.46 1021.54 1021.70 1021.78 1021.58
1017.50 1017.86 1018.18 1018.42 1018.66 1019.02 1019.22 1019.58 1019.90 1020.14 1020.38 1020.66 1020.90 1021.14 1021.34 1021.54 1021.78 1021.94 1022.10 1022.26 1022.42 1022.50 1022.58 1022.70 1022.82 1022.86 1022.86 1022.78 1022.86 1023.10 1023.18 1023.26 1023.34 1023.42 1023.58 1023.70 1023.74 1023.74 1023.66 1023.54 1023.58 1023.50 1023.50 1023.42 1023.30 1023.30 1023.14 1023.10 1022.90 1022.74 1022.18 1021.46 1021.22 1021.38 1021.38 1021.54 1021.70 1022.22 1022.54 1021.90 1021.82 1021.90 1021.82
1017.54 1017.90 1018.26 1018.54 1018.74 1018.94 1019.10 1019.42 1019.86 1020.14 1020.38 1020.66 1020.98 1021.26 1021.50 1021.62 1021.86 1022.10 1022.26 1022.46 1022.58 1022.66 1022.78 1022.86 1022.94 1023.02 1023.10 1023.06 1023.14 1023.30 1023.46 1023.50 1023.58 1023.70 1023.82 1023.94 1024.02 1023.98 1023.90 1023.82 1023.70 1023.86 1023.78 1023.74 1023.62 1023.62 1023.46 1023.38 1023.22 1023.06 1022.70 1022.30 1021.46 1021.22 1021.42 1021.78 1022.18 1022.30 1022.58 1022.62 1021.94 1022.06 1022.02
1017.42 1017.54 1018.06 1018.62 1018.86 1019.06 1019.14 1019.46 1019.82 1020.18 1020.46 1020.70 1021.02 1021.38 1021.58 1021.78 1021.98 1022.18 1022.42 1022.66 1022.78 1022.82 1022.98 1023.10 1023.22 1023.26 1023.26 1023.26 1023.38 1023.54 1023.62 1023.70 1023.74 1023.98 1024.06 1024.10 1024.18 1024.14 1024.10 1024.10 1023.98 1024.06 1024.10 1024.06 1023.94 1023.82 1023.74 1023.58 1023.46 1023.34 1023.18 1023.02 1022.54 1021.66 1021.46 1021.70 1023.02 1022.94 1022.50 1022.86 1022.66 1022.14 1022.18
1017.42 1017.70 1017.82 1018.38 1018.82 1019.10 1019.26 1019.50 1019.86 1020.26 1020.50 1020.78 1021.10 1021.46 1021.62 1021.94 1022.14 1022.34 1022.54 1022.78 1022.90 1023.02 1023.18 1023.30 1023.38 1023.42 1023.42 1023.54 1023.66 1023.70 1023.78 1023.82 1023.94 1024.14 1024.30 1024.34 1024.34 1024.30 1024.30 1024.22 1024.22 1024.30 1024.38 1024.30 1024.26 1024.14 1024.02 1023.86 1023.70 1023.58 1023.42 1023.30 1022.98 1022.58 1022.38 1022.06 1023.06 1023.50 1023.14 1022.94 1022.98 1022.78 1022.42
1017.30 1017.42 1017.94 1018.34 1018.66 1018.98 1019.22 1019.50 1019.82 1020.18 1020.54 1020.86 1021.18 1021.46 1021.70 1021.98 1022.22 1022.50 1022.66 1022.90 1023.06 1023.22 1023.34 1023.46 1023.50 1023.50 1023.58 1023.70 1023.78 1023.86 1023.94 1023.94 1024.10 1024.38 1024.54 1024.54 1024.54 1024.46 1024.46 1024.54 1024.54 1024.58 1024.58 1024.50 1024.38 1024.26 1024.18 1024.02 1023.90 1023.74 1023.66 1023.54 1023.54 1023.38 1023.06 1022.46 1022.46 1023.46 1023.54 1023.30 1023.10 1023.06 1022.94
1017.22 1017.30 1017.58 1018.22 1018.58 1018.86 1019.10 1019.42 1019.82 1020.22 1020.58 1020.86 1021.18 1021.42 1021.66 1021.98 1022.26 1022.54 1022.78 1022.98 1023.14 1023.26 1023.42 1023.54 1023.58 1023.66 1023.74 1023.82 1023.86 1023.94 1024.10 1024.10 1024.30 1024.54 1024.74 1024.74 1024.70 1024.66 1024.70 1024.82 1024.86 1024.78 1024.66 1024.50 1024.50 1024.42 1024.38 1024.34 1024.22 1024.02 1023.90 1023.78 1023.78 1023.70 1023.30 1022.90 1022.94 1023.42 1023.54 1023.54 1023.30 1023.10 1023.06
1017.30 1017.50 1017.70 1018.06 1018.38 1018.74 1019.06 1019.46 1019.86 1020.22 1020.58 1020.94 1021.14 1021.42 1021.66 1021.98 1022.26 1022.54 1022.78 1022.98 1023.14 1023.34 1023.50 1023.66 1023.74 1023.78 1023.86 1024.02 1024.06 1024.14 1024.18 1024.22 1024.42 1024.74 1024.86 1024.98 1024.90 1024.86 1024.90 1024.98 1025.02 1025.02 1024.86 1024.74 1024.66 1024.62 1024.62 1024.54 1024.42 1024.30 1024.18 1023.98 1023.98 1024.02 1023.82 1023.42 1023.22 1023.22 1023.38 1023.42 1023.30 1023.22 1023.06
1017.18 1017.50 1017.78 1018.06 1018.38 1018.74 1019.14 1019.50 1019.90 1020.30 1020.58 1020.90 1021.06 1021.34 1021.66 1022.02 1022.30 1022.54 1022.78 1022.98 1023.18 1023.38 1023.54 1023.70 1023.82 1023.86 1023.98 1024.14 1024.30 1024.34 1024.38 1024.42 1024.62 1024.90 1024.98 1025.10 1025.18 1025.14 1025.14 1025.10 1025.18 1025.18 1025.10 1025.02 1025.02 1024.94 1024.94 1024.86 1024.74 1024.62 1024.54 1024.38 1024.34 1024.34 1024.38 1023.90 1023.66 1023.62 1023.62 1023.54 1023.38 1023.18 1022.98
1017.26 1017.54 1017.74 1018.06 1018.42 1018.78 1019.18 1019.58 1019.90 1020.22 1020.54 1020.82 1021.06 1021.30 1021.70 1022.02 1022.30 1022.54 1022.78 1023.02 1023.22 1023.46 1023.62 1023.78 1023.90 1023.94 1024.10 1024.18 1024.34 1024.46 1024.46 1024.54 1024.78 1024.98 1025.10 1025.22 1025.22 1025.26 1025.30 1025.34 1025.34 1025.34 1025.26 1025.22 1025.26 1025.26 1025.26 1025.14 1025.02 1025.02 1024.98 1024.82 1024.82 1024.74 1024.58 1024.42 1023.98 1023.82 1023.74 1023.78 1023.78 1023.34 1023.14
1017.22 1017.46 1017.74 1018.02 1018.38 1018.78 1019.14 1019.58 1019.82 1020.10 1020.42 1020.70 1021.02 1021.42 1021.74 1022.02 1022.30 1022.58 1022.82 1023.06 1023.30 1023.50 1023.70 1023.86 1023.94 1024.06 1024.14 1024.30 1024.42 1024.50 1024.58 1024.74 1024.90 1025.06 1025.18 1025.26 1025.30 1025.30 1025.42 1025.46 1025.50 1025.46 1025.42 1025.38 1025.42 1025.42 1025.42 1025.38 1025.26 1025.18 1025.14 1025.06 1025.02 1024.98 1024.82 1024.58 1024.42 1024.06 1023.98 1023.78 1023.86 1023.66 1023.50
1017.10 1017.38 1017.70 1018.02 1018.42 1018.78 1019.14 1019.50 1019.78 1020.02 1020.42 1020.78 1021.10 1021.46 1021.82 1022.06 1022.34 1022.58 1022.82 1023.02 1023.26 1023.50 1023.70 1023.82 1023.98 1024.18 1024.34 1024.42 1024.54 1024.62 1024.70 1024.86 1025.10 1025.22 1025.34 1025.42 1025.50 1025.50 1025.58 1025.62 1025.58 1025.54 1025.54 1025.58 1025.62 1025.58 1025.66 1025.66 1025.50 1025.38 1025.30 1025.18 1025.10 1025.02 1024.90 1024.74 1024.58 1024.38 1024.26 1024.22 1024.02 1023.86 1023.74
1016.98 1017.30 1017.62 1017.98 1018.34 1018.70 1019.06 1019.42 1019.74 1020.10 1020.34 1020.74 1021.18 1021.50 1021.78 1022.06 1022.26 1022.54 1022.74 1022.94 1023.22 1023.46 1023.66 1023.86 1023.98 1024.14 1024.34 1024.54 1024.66 1024.78 1024.86 1025.02 1025.22 1025.34 1025.46 1025.50 1025.58 1025.66 1025.70 1025.70 1025.74 1025.70 1025.74 1025.78 1025.86 1025.90 1025.90 1025.90 1025.78 1025.70 1025.62 1025.46 1025.26 1025.22 1025.06 1024.90 1024.74 1024.62 1024.38 1024.30 1024.14 1023.90 1023.78
1016.82 1017.22 1017.54 1017.90 1018.30 1018.66 1019.02 1019.34 1019.70 1020.10 1020.46 1020.70 1021.06 1021.42 1021.74 1022.02 1022.26 1022.42 1022.70 1022.94 1023.22 1023.46 1023.70 1023.90 1024.06 1024.22 1024.38 1024.58 1024.74 1024.90 1025.06 1025.22 1025.38 1025.54 1025.58 1025.62 1025.70 1025.74 1025.78 1025.78 1025.86 1025.90 1025.90 1025.94 1025.98 1026.02 1026.10 1026.14 1026.06 1025.98 1025.86 1025.74 1025.54 1025.38 1025.14 1025.02 1024.90 1024.74 1024.58 1024.34 1024.14 1024.10 1023.94
1016.82 1017.22 1017.54 1017.90 1018.34 1018.74 1019.10 1019.46 1019.74 1020.14 1020.42 1020.74 1021.02 1021.26 1021.58 1021.90 1022.22 1022.42 1022.70 1022.94 1023.22 1023.50 1023.78 1023.98 1024.14 1024.26 1024.42 1024.62 1024.82 1024.98 1025.10 1025.26 1025.42 1025.62 1025.70 1025.74 1025.82 1025.82 1025.86 1025.86 1025.90 1025.98 1026.02 1026.06 1026.10 1026.14 1026.14 1026.14 1026.18 1026.10 1026.02 1025.86 1025.74 1025.54 1025.30 1025.18 1024.98 1024.78 1024.66 1024.50 1024.42 1024.26 1024.14
1016.98 1017.42 1017.82 1018.18 1018.58 1018.98 1019.30 1019.66 1019.98 1020.26 1020.54 1020.74 1020.98 1021.18 1021.50 1021.82 1022.22 1022.54 1022.82 1023.06 1023.34 1023.66 1023.86 1024.02 1024.14 1024.26 1024.46 1024.70 1024.86 1025.02 1025.10 1025.26 1025.38 1025.58 1025.74 1025.86 1025.94 1025.94 1025.90 1026.02 1026.02 1026.06 1026.34 1026.58 1026.66 1026.66 1026.70 1026.54 1026.18 1026.18 1026.22 1026.06 1025.90 1025.70 1025.50 1025.26 1025.10 1024.98 1024.86 1024.78 1024.74 1024.54 1024.42
1017.30 1017.66 1018.02 1018.42 1018.78 1019.10 1019.42 1019.78 1020.10 1020.38 1020.62 1020.82 1021.02 1021.30 1021.58 1021.90 1022.18 1022.46 1022.82 1023.18 1023.46 1023.78 1023.94 1024.06 1024.34 1024.50 1024.46 1024.58 1024.82 1025.02 1025.22 1025.30 1025.38 1025.50 1025.66 1025.86 1026.10 1026.14 1026.14 1026.14 1026.42 1026.70 1026.86 1026.94 1026.98 1027.06 1027.06 1027.02 1026.94 1026.70 1026.50 1026.30 1026.06 1025.86 1025.78 1025.62 1025.42 1025.26 1025.14 1025.18 1025.18 1024.98 1024.86
1017.38 1017.78 1018.06 1018.50 1018.86 1019.14 1019.38 1019.66 1020.02 1020.38 1020.70 1020.94 1021.18 1021.46 1021.66 1021.98 1022.26 1022.50 1022.74 1023.10 1023.50 1023.78 1023.98 1024.26 1024.74 1024.82 1024.90 1024.90 1024.86 1025.06 1025.18 1025.38 1025.50 1025.54 1025.62 1025.74 1025.98 1026.22 1026.26 1026.26 1026.42 1026.82 1026.90 1027.06 1027.22 1027.26 1027.30 1027.34 1027.30 1027.34 1027.38 1027.30 1027.06 1026.54 1026.02 1025.86 1025.94 1025.70 1025.42 1025.54 1025.62 1025.38 1025.34
1017.38 1017.78 1018.14 1018.50 1018.78 1018.98 1019.26 1019.62 1019.94 1020.34 1020.74 1021.06 1021.30 1021.50 1021.74 1021.94 1022.22 1022.54 1022.82 1023.06 1023.38 1023.66 1023.94 1024.54 1024.90 1025.06 1025.10 1025.10 1024.98 1024.98 1025.18 1025.38 1025.58 1025.58 1025.62 1025.66 1025.90 1026.10 1026.30 1026.38 1026.42 1026.50 1026.54 1026.62 1026.86 1027.14 1027.46 1027.54 1027.50 1027.50 1027.50 1027.46 1027.42 1027.34 1027.18 1026.82 1026.30 1026.02 1025.94 1025.86 1025.94 1025.98 1025.78
1017.30 1017.82 1018.10 1018.42 1018.74 1018.98 1019.26 1019.66 1020.10 1020.50 1020.82 1021.06 1021.30 1021.58 1021.78 1022.10 1022.34 1022.58 1022.78 1023.02 1023.34 1023.62 1023.94 1024.78 1024.98 1025.14 1025.22 1025.22 1025.22 1025.06 1025.10 1025.34 1025.46 1025.62 1025.70 1025.70 1025.82 1026.06 1026.22 1026.34 1026.50 1026.58 1026.74 1027.02 1026.70 1026.74 1026.98 1027.42 1027.66 1027.62 1027.54 1027.50 1027.54 1027.50 1027.42 1027.42 1027.30 1026.82 1026.30 1026.18 1026.18 1026.34 1026.38
1017.34 1017.78 1018.10 1018.50 1018.82 1019.10 1019.42 1019.82 1020.22 1020.54 1020.86 1021.18 1021.38 1021.66 1021.98 1022.22 1022.50 1022.66 1022.82 1022.98 1023.26 1023.54 1023.98 1024.78 1025.02 1025.18 1025.22 1025.30 1025.30 1025.14 1025.14 1025.42 1025.54 1025.70 1025.78 1025.90 1025.98 1026.10 1026.18 1026.18 1026.34 1026.58 1026.74 1026.74 1026.62 1026.62 1026.70 1026.86 1027.02 1027.06 1026.94 1026.86 1027.02 1027.34 1027.38 1027.42 1027.30 1027.22 1026.94 1026.66 1026.50 1026.54 1026.62
1017.38 1017.86 1018.26 1018.62 1018.94 1019.22 1019.58 1020.02 1020.34 1020.62 1020.86 1021.02 1021.30 1021.58 1021.90 1022.22 1022.50 1022.66 1022.82 1022.98 1023.22 1023.62 1024.06 1024.78 1025.02 1025.14 1025.22 1025.30 1025.38 1025.22 1025.30 1025.58 1025.70 1025.86 1026.02 1026.10 1026.14 1026.26 1026.34 1026.26 1026.14 1026.30 1026.58 1026.62 1026.62 1026.62 1026.58 1026.66 1026.74 1026.82 1026.82 1026.86 1026.82 1026.86 1026.94 1026.94 1026.94 1026.86 1026.86 1026.82 1026.74 1026.70 1026.74
1017.46 1017.94 1018.30 1018.62 1018.98 1019.38 1019.70 1019.90 1020.18 1020.46 1020.70 1020.98 1021.22 1021.46 1021.78 1022.02 1022.38 1022.66 1022.86 1023.06 1023.30 1023.70 1024.42 1025.02 1025.06 1025.14 1025.22 1025.30 1025.34 1025.18 1025.38 1025.58 1025.70 1025.86 1026.10 1026.22 1026.26 1026.34 1026.42 1026.34 1026.22 1026.30 1026.46 1026.50 1026.86 1027.02 1026.78 1026.54 1026.58 1026.62 1026.74 1026.74 1026.70 1026.78 1026.90 1027.34 1027.50 1027.50 1027.38 1027.14 1026.94 1026.90 1026.90
1017.50 1017.86 1018.18 1018.46 1018.86 1019.22 1019.50 1019.86 1020.22 1020.38 1020.74 1021.06 1021.34 1021.58 1021.78 1022.02 1022.26 1022.54 1022.90 1023.10 1023.26 1023.70 1024.42 1025.14 1025.22 1025.18 1025.18 1025.26 1025.14 1025.02 1025.34 1025.38 1025.66 1025.86 1026.06 1026.22 1026.26 1026.42 1026.50 1026.42 1026.26 1026.22 1026.38 1026.46 1026.98 1027.18 1027.10 1026.86 1026.38 1026.54 1026.58 1026.66 1026.66 1026.58 1026.74 1027.10 1027.50 1027.62 1027.62 1027.66 1027.54 1027.46 1027.38
1017.18 1017.54 1017.86 1018.14 1018.50 1019.02 1019.42 1019.74 1020.06 1020.30 1020.54 1021.10 1021.38 1021.54 1021.78 1022.06 1022.34 1022.50 1022.78 1022.98 1023.14 1023.54 1024.14 1024.94 1025.26 1025.22 1025.18 1025.14 1024.86 1024.94 1025.06 1025.22 1025.62 1025.82 1026.14 1026.30 1026.18 1026.22 1026.54 1026.86 1026.62 1026.30 1026.30 1026.50 1027.06 1027.18 1027.22 1027.02 1026.38 1026.46 1026.46 1026.50 1026.54 1026.50 1026.78 1026.98 1027.02 1027.30 1027.58 1027.54 1027.42 1027.30 1027.14
1016.90 1017.34 1017.78 1018.30 1018.58 1018.90 1019.34 1019.70 1020.02 1020.26 1020.54 1020.86 1021.26 1021.58 1021.78 1022.06 1022.42 1022.70 1022.86 1023.02 1023.38 1023.42 1023.94 1024.82 1025.26 1025.18 1025.18 1025.14 1024.94 1024.78 1024.90 1025.10 1025.54 1025.74 1025.86 1026.18 1026.26 1026.18 1026.50 1026.82 1026.98 1026.62 1026.34 1026.62 1027.10 1027.18 1027.22 1026.98 1026.34 1026.34 1026.34 1026.38 1026.42 1026.58 1026.78 1026.90 1026.82 1026.66 1026.70 1026.70 1026.70 1026.74 1026.62
1016.74 1017.34 1017.74 1017.94 1018.10 1018.54 1019.14 1019.74 1020.18 1020.42 1020.82 1021.14 1021.58 1021.78 1021.94 1022.10 1022.46 1022.82 1023.10 1023.26 1023.54 1023.54 1023.86 1024.42 1025.02 1025.22 1025.14 1025.14 1024.94 1024.70 1024.78 1025.02 1025.34 1025.70 1025.70 1025.78 1025.98 1026.14 1026.26 1026.46 1026.94 1027.10 1026.98 1027.06 1027.14 1027.22 1027.18 1027.18 1026.50 1026.30 1026.26 1026.22 1026.38 1026.70 1026.78 1026.86 1026.94 1026.82 1026.74 1026.70 1026.66 1026.62 1026.54
1016.18 1017.02 1017.38 1017.86 1018.62 1019.14 1019.50 1019.82 1020.30 1020.66 1020.86 1021.26 1021.66 1021.94 1022.10 1022.30 1022.58 1022.98 1023.18 1023.26 1023.46 1023.66 1023.82 1024.14 1024.86 1025.18 1025.14 1025.18 1025.14 1024.86 1024.78 1024.90 1025.10 1025.34 1025.46 1025.66 1025.62 1025.82 1025.98 1026.06 1026.34 1027.14 1027.18 1027.18 1027.18 1027.22 1027.22 1027.18 1026.94 1026.46 1026.34 1026.22 1026.58 1026.86 1026.94 1026.78 1027.14 1027.26 1026.66 1026.62 1026.42 1026.22 1026.06
1016.46 1016.90 1017.50 1018.06 1018.98 1019.46 1019.82 1020.02 1020.26 1020.66 1021.14 1021.26 1021.58 1021.94 1022.26 1022.42 1022.66 1023.02 1023.26 1023.42 1023.58 1023.78 1024.06 1024.22 1024.54 1025.18 1025.18 1025.26 1025.26 1025.14 1024.78 1024.94 1025.02 1025.14 1025.38 1025.46 1025.54 1025.66 1025.86 1026.02 1026.26 1027.06 1027.26 1027.18 1027.22 1027.22 1027.22 1027.18 1027.14 1026.58 1026.78 1027.10 1027.34 1027.34 1027.06 1026.86 1026.74 1026.46 1026.26 1026.14 1025.98 1025.98 1025.94
1016.82 1017.06 1017.54 1018.06 1018.66 1019.30 1019.66 1020.06 1020.50 1020.66 1020.74 1021.18 1021.62 1022.10 1022.42 1022.58 1022.74 1023.06 1023.30 1023.50 1023.66 1023.86 1024.10 1024.42 1024.62 1024.90 1025.26 1025.30 1025.42 1025.42 1025.22 1025.22 1025.58 1025.26 1025.22 1025.42 1025.54 1025.74 1025.94 1026.18 1026.70 1027.26 1027.26 1027.22 1027.26 1027.26 1027.22 1027.22 1027.02 1026.98 1027.34 1027.38 1027.46 1027.46 1027.26 1026.70 1026.62 1026.34 1026.18 1026.18 1026.14 1026.10 1026.06
1016.70 1017.22 1017.46 1017.82 1018.34 1018.94 1019.50 1019.90 1020.30 1020.74 1021.06 1021.30 1021.78 1022.38 1022.74 1022.74 1022.78 1022.90 1023.10 1023.38 1023.66 1023.90 1024.10 1024.14 1024.70 1024.86 1025.18 1025.42 1025.50 1025.62 1025.66 1025.62 1025.70 1025.30 1025.22 1025.34 1025.54 1025.78 1026.02 1026.18 1026.62 1027.26 1027.30 1027.26 1027.26 1027.22 1027.22 1027.10 1027.02 1027.46 1027.46 1027.50 1027.46 1027.42 1026.86 1026.62 1026.46 1026.34 1026.34 1026.14 1026.10 1026.06 1026.02
Wind_Speed
11 11 9 6 7 7 7 6 4 4 4 5 5 5 4 4 4 4 4 4 4 3 3 4 4 3 3 4 5 5 5 5 5 5 4 4 4 4 4 4 5 5 5 5 4 4 3 5 3 4 5 7 5 7 7 8 9 9 9 9 10 10 8
9 10 9 9 8 7 8 6 4 5 5 5 5 5 4 4 4 4 5 4 4 4 4 4 4 4 5 5 5 5 6 6 5 5 5 5 4 4 3 4 3 3 4 5 5 4 5 5 4 6 6 5 4 6 7 6 8 8 8 9 9 10 9
10 9 9 10 9 9 7 7 4 5 4 4 4 4 5 5 5 5 5 5 4 4 4 5 5 5 5 6 6 6 6 7 6 6 6 4 4 4 4 3 4 3 3 4 6 7 5 5 5 6 6 7 6 6 7 7 7 9 8 9 10 10 10
13 12 11 10 10 9 10 8 5 5 4 4 4 4 5 5 6 5 5 5 4 4 4 4 4 4 4 5 5 7 8 7 6 6 7 6 5 6 6 5 5 6 5 6 6 6 6 6 6 6 5 6 5 6 8 7 7 8 9 8 10 9 9
14 13 13 12 12 11 10 10 6 5 4 4 4 5 5 6 6 6 6 5 4 4 5 4 4 4 4 4 5 6 6 6 6 6 6 7 6 6 6 5 5 5 6 6 6 5 5 4 5 6 6 5 3 6 6 6 6 7 9 9 10 10 10
10 13 13 12 9 8 8 8 7 6 6 6 5 6 6 7 5 6 5 5 4 4 5 6 5 5 4 5 6 7 7 7 7 7 7 7 6 5 5 5 5 6 6 5 4 4 3 2 4 5 5 4 5 5 6 7 8 6 8 9 9 10 10
9 11 11 9 8 7 7 8 8 7 6 6 7 7 7 6 5 6 6 6 6 6 6 6 5 5 5 6 7 8 8 7 7 8 8 7 7 6 5 6 6 6 6 5 5 4 5 4 4 5 5 4 5 5 5 7 8 8 8 8 9 10 9
11 9 8 7 8 8 7 8 7 6 6 6 6 7 8 7 7 7 7 6 6 6 6 6 5 5 6 6 7 7 6 6 7 7 7 7 7 8 8 7 6 6 6 6 5 5 4 4 4 5 5 4 3 5 6 7 6 11 10 8 8 11 10
10 9 9 6 6 6 8 8 7 6 6 6 7 8 7 7 7 8 7 7 7 6 6 6 6 5 6 7 7 6 7 5 8 9 7 8 8 8 8 7 7 7 6 6 5 5 5 4 4 5 5 4 5 5 4 7 8 7 11 9 6 10 11
13 13 11 9 7 6 7 7 7 6 7 6 8 6 7 7 7 8 7 7 6 6 7 6 6 6 6 6 6 7 7 7 8 8 7 7 7 7 7 8 7 6 6 6 5 5 5 5 5 5 5 5 4 5 5 7 8 7 9 10 8 9 11
9 10 9 12 9 8 7 7 7 7 7 8 8 6 8 8 8 8 7 7 6 7 7 6 6 6 7 6 7 7 7 7 8 7 7 7 7 7 8 8 7 7 6 6 6 6 6 5 5 6 6 6 6 6 5 6 7 7 6 7 8 8 11
11 12 10 9 9 9 9 8 8 8 8 8 8 8 8 8 8 7 7 7 7 7 6 6 6 6 6 7 6 7 6 7 8 8 7 6 6 7 9 9 7 6 6 6 6 6 6 6 6 6 6 6 7 6 5 4 6 7 6 7 7 8 10
8 9 11 10 9 9 9 10 9 9 9 8 8 9 8 9 8 8 7 7 7 7 7 6 6 6 6 6 6 7 7 9 10 9 8 7 6 8 9 9 7 6 6 6 7 7 7 7 6 6 6 6 7 6 5 5 7 7 7 6 6 7 11
13 9 11 10 10 9 9 9 9 8 8 8 9 9 9 9 9 8 9 8 8 7 7 7 6 6 6 7 7 8 8 9 10 9 9 9 8 9 9 9 8 8 7 8 7 7 7 7 7 7 7 7 7 7 6 6 6 7 6 6 6 7 8
12 11 10 10 9 9 9 9 8 8 9 9 9 9 10 9 8 9 8 8 8 8 7 7 7 6 7 8 8 6 8 10 10 9 9 9 8 7 8 9 9 9 8 9 8 8 7 7 7 7 7 8 7 7 7 5 6 6 7 7 7 7 7
12 14 11 10 10 10 9 9 8 9 9 9 9 9 9 9 9 9 9 8 8 8 8 7 6 7 8 9 8 8 8 10 10 10 9 9 9 8 9 8 9 8 7 9 8 7 7 7 7 8 8 7 8 7 7 7 5 7 7 8 7 8 9
14 13 10 9 11 11 10 9 8 9 9 8 9 8 9 10 10 9 9 9 8 8 8 7 7 7 9 9 9 9 9 9 9 9 9 9 9 8 9 9 8 8 8 9 8 8 7 7 7 7 8 7 7 7 7 7 7 6 7 7 9 9 8
14 11 10 9 11 11 10 9 7 9 9 9 9 9 8 9 9 9 8 9 9 9 8 8 9 8 8 8 8 9 9 9 8 8 8 8 8 9 8 8 8 8 8 9 8 8 8 8 7 7 7 7 7 7 6 7 7 7 7 8 7 8 8
12 12 11 11 12 11 10 9 9 7 9 10 9 9 10 8 8 9 9 9 9 9 8 8 9 9 9 8 8 8 8 8 8 8 7 8 8 7 7 7 7 8 8 8 8 8 8 9 7 8 8 7 7 7 7 7 7 7 7 8 8 7 9
11 11 11 10 9 9 9 9 9 9 7 10 10 10 9 10 8 9 10 9 9 9 9 8 8 9 9 9 9 9 8 8 7 6 6 7 6 6 7 6 7 7 7 8 8 8 8 8 7 8 7 7 7 7 7 7 7 8 8 8 8 8 8
10 9 9 9 9 8 8 8 8 7 9 9 10 10 11 10 8 8 9 9 9 8 8 8 8 9 9 8 8 8 8 8 8 6 6 5 5 6 6 6 6 6 7 7 7 7 7 7 7 7 6 6 6 7 7 7 7 7 8 9 9 9 9
8 10 9 8 8 8 8 7 7 8 7 7 7 9 10 10 10 9 8 8 9 7 7 7 7 8 8 8 8 8 8 8 7 7 6 6 5 5 6 6 5 6 7 8 8 7 7 6 5 6 6 6 6 7 7 7 7 7 8 8 8 9 9
8 9 9 9 8 8 8 8 8 8 8 8 8 9 9 9 10 10 10 9 8 6 5 4 6 9 9 8 8 6 6 6 7 7 6 6 5 4 4 5 6 9 9 10 8 8 10 11 10 7 6 5 6 6 7 8 7 7 8 9 9 9 11
9 10 9 8 8 9 9 8 9 9 8 8 9 9 9 10 9 9 10 10 9 6 5 5 10 8 9 9 8 7 7 6 5 6 6 6 6 5 4 5 5 7 9 9 8 9 10 10 10 11 11 10 9 7 6 8 8 8 8 9 8 9 10
10 9 9 9 9 9 9 9 9 9 9 9 8 8 9 9 9 9 8 9 8 7 6 9 11 10 10 9 7 7 6 6 5 5 5 6 5 5 5 4 4 4 5 7 9 8 9 9 10 10 9 9 9 10 10 7 6 8 8 8 9 9 9
11 9 9 10 9 9 10 9 9 9 9 8 8 9 8 9 8 8 9 10 8 7 7 10 11 11 10 9 8 7 6 6 6 5 5 5 6 6 5 5 4 3 4 6 7 8 9 8 7 8 10 10 8 8 8 9 9 6 6 7 8 9 8
11 10 9 9 9 9 10 9 9 8 8 8 8 8 8 9 8 8 8 9 8 7 8 10 11 11 11 10 9 5 6 5 5 5 4 4 4 5 5 6 6 5 5 5 5 7 7 7 7 6 5 5 5 5 5 4 3 3 5 6 6 7 6
10 9 9 9 9 9 9 9 9 8 8 9 9 9 9 9 8 8 8 8 7 7 6 11 11 12 11 11 9 6 6 5 4 4 3 3 3 3 4 4 6 7 6 6 5 5 7 6 5 4 4 4 4 4 4 4 5 4 4 4 4 5 5
9 9 10 10 10 9 9 10 11 9 8 7 6 7 6 7 9 8 8 8 7 7 7 10 11 12 12 12 10 6 6 6 5 5 4 3 3 3 3 4 5 6 6 6 5 3 3 4 5 5 4 4 3 3 3 3 2 4 5 4 3 4 4
10 10 11 11 11 11 11 10 8 7 8 7 7 7 7 7 7 8 8 8 8 7 8 9 10 12 13 13 9 7 6 6 5 5 4 4 3 3 3 3 4 6 6 6 7 7 5 7 5 4 4 4 3 3 3 2 4 1 2 3 1 1 1
11 11 11 12 12 9 8 7 9 8 9 9 8 7 7 7 6 7 8 9 8 9 8 9 11 12 13 12 9 8 7 7 6 5 5 3 3 3 3 1 2 5 6 6 8 7 7 6 4 4 4 3 3 3 3 2 2 2 4 4 4 3 1
12 11 9 8 9 11 10 9 8 7 6 7 7 7 6 7 6 5 6 6 8 9 8 9 10 12 12 11 9 8 7 7 7 5 5 4 3 3 4 3 2 2 3 7 9 8 8 7 3 4 3 2 3 3 3 1 1 1 2 2 2 2 2
12 11 13 13 9 9 8 7 8 7 6 5 6 6 6 6 7 6 5 6 7 6 9 8 10 11 12 11 9 8 7 8 8 7 6 6 5 4 4 4 3 3 4 7 8 7 6 5 3 4 2 1 2 3 2 1 2 2 2 2 1 1 2
14 13 12 10 8 7 7 9 9 8 9 6 6 6 6 6 6 6 6 6 6 6 7 9 10 11 11 11 9 8 8 8 8 8 7 7 6 6 5 4 3 4 3 6 6 7 6 4 3 3 2 1 2 3 1 2 2 5 0 1 0 1 3
11 11 10 10 9 8 7 8 9 9 8 9 8 7 6 6 6 5 5 5 5 6 6 8 10 9 11 10 10 7 6 7 7 8 7 6 6 5 5 4 4 4 4 5 6 6 6 6 3 3 2 5 4 2 2 1 1 1 1 1 2 3 3
10 10 11 11 11 10 9 9 7 7 10 9 8 7 7 6 6 6 5 5 5 5 7 6 9 9 9 10 9 6 4 7 3 6 7 7 6 5 4 4 4 5 5 6 6 6 6 6 5 3 6 5 5 3 2 2 1 2 1 2 2 2 3
10 9 12 12 11 11 11 9 9 7 6 9 10 9 5 5 5 6 7 6 5 5 6 6 6 8 8 9 8 6 6 8 8 6 6 6 6 5 5 4 5 7 6 7 7 6 5 2 4 6 5 5 5 4 3 2 3 1 1 1 2 2 3
Wind_Direction
166 160 152 129 132 141 137 129 122 108 100 101 103 96 101 109 108 105 103 99 96 87 81 72 67 62 73 69 62 64 64 56 54 67 70 44 36 62 43 59 80 83 65 58 37 7 344 324 359 31 26 355 26 31 34 32 26 22 18 15 10 6 5
141 138 140 148 143 138 131 133 123 115 105 92 90 102 109 112 109 108 106 103 98 87 81 83 73 65 61 62 60 61 64 65 62 62 70 59 47 41 40 68 72 73 71 67 40 21 14 342 359 355 351 351 9 43 26 34 30 24 21 16 10 8 5
135 134 143 146 144 139 131 144 122 121 112 97 89 97 105 106 103 106 102 97 94 85 80 80 81 72 64 65 62 68 69 73 64 62 63 64 60 51 39 30 48 62 65 48 34 24 25 16 339 343 351 349 2 41 24 26 22 23 22 16 11 9 5
145 147 150 153 146 141 150 151 137 127 111 103 110 104 101 106 114 108 97 94 89 89 88 83 74 74 75 76 76 71 63 63 66 72 70 61 61 56 47 45 50 47 39 38 26 23 18 7 342 345 355 353 3 27 23 26 24 24 22 18 12 9 4
154 159 160 153 152 148 150 151 140 132 122 117 123 122 126 132 126 110 98 98 92 87 82 78 77 79 81 77 72 68 68 64 65 66 62 59 57 65 55 52 57 54 52 41 37 27 19 9 340 340 356 351 31 46 25 15 29 24 20 17 15 8 6
152 155 157 152 153 150 143 138 147 147 142 145 144 138 135 136 118 113 110 104 98 86 87 84 79 79 81 79 75 72 65 62 59 61 63 57 55 58 63 60 59 57 56 50 38 32 22 353 354 349 4 14 19 38 38 22 14 26 22 21 15 11 6
146 152 155 151 151 150 140 142 151 151 151 151 147 142 141 130 105 102 103 98 96 96 91 87 85 80 80 83 77 74 72 71 72 72 72 70 65 61 63 67 58 59 56 46 43 36 25 17 19 5 346 40 33 45 44 33 31 17 19 21 18 13 7
152 152 148 149 146 146 140 140 144 146 145 142 139 138 139 116 111 110 108 105 100 96 95 94 89 85 84 85 82 80 78 76 77 76 72 69 67 65 65 66 68 61 53 47 43 43 36 33 22 6 1 18 80 50 41 38 34 37 4 1 16 13 11
147 144 148 139 142 147 139 140 138 137 132 127 130 134 124 121 117 113 107 103 106 101 97 96 95 92 88 90 89 89 85 79 81 79 80 76 72 68 69 71 70 62 54 50 50 46 42 34 31 22 11 14 17 49 54 41 26 34 23 3 12 20 9
155 155 152 156 147 144 131 128 129 127 125 127 137 126 123 117 118 115 112 112 107 102 98 94 98 98 95 90 91 90 87 82 81 76 75 77 76 74 71 67 68 66 59 57 52 49 46 42 41 38 30 25 2 34 43 49 30 4 18 16 1 6 8
157 151 139 151 152 141 130 122 125 131 136 135 134 126 124 120 116 117 117 114 108 106 105 107 106 103 98 91 89 86 86 89 88 83 77 80 78 77 74 71 69 69 60 58 56 49 48 45 44 44 40 34 23 42 34 50 49 17 359 20 17 360 1
162 158 154 144 146 141 134 133 135 134 128 126 129 132 128 126 124 120 120 118 116 113 113 113 113 105 102 100 95 92 88 90 89 86 81 82 80 80 78 75 70 69 63 62 59 53 48 45 46 47 45 43 37 32 31 35 61 44 5 11 15 14 1
156 146 144 150 147 139 135 136 134 137 139 134 134 135 131 132 132 129 127 127 124 121 121 116 111 109 105 101 101 96 94 96 93 91 91 84 83 83 80 74 64 64 63 65 59 52 50 46 42 43 43 45 42 27 23 43 57 49 26 13 11 11 9
161 153 146 149 141 135 131 133 137 133 131 135 139 138 136 137 137 134 134 134 131 128 126 123 119 115 108 104 99 99 102 100 99 99 99 91 86 85 83 80 73 66 62 61 56 55 50 45 45 45 43 45 44 33 24 37 52 60 46 22 19 9 8
163 157 145 143 132 131 135 136 133 132 134 139 144 140 140 139 140 140 136 135 132 129 130 127 127 121 116 110 104 103 103 103 104 105 102 96 91 86 86 83 78 70 62 63 59 55 50 49 46 48 46 44 44 40 22 28 47 44 42 22 14 14 15
161 162 147 143 137 136 136 135 140 137 138 140 142 142 141 144 144 141 137 136 134 132 133 131 127 125 118 115 113 109 108 108 109 110 107 104 100 95 90 86 83 76 71 69 64 58 54 55 54 57 54 49 49 42 36 28 29 42 39 39 16 16 14
162 159 146 141 138 139 141 142 143 137 137 138 140 139 143 147 146 144 140 140 138 138 137 133 129 125 121 120 119 115 112 110 110 110 111 109 103 98 94 90 85 81 77 73 66 64 57 56 57 57 58 55 53 47 38 38 35 40 35 41 29 24 17
161 150 144 140 141 142 143 142 141 138 135 135 137 140 144 148 148 149 147 147 143 142 141 138 132 127 122 122 120 118 116 114 113 112 108 105 100 100 95 90 88 84 80 76 72 67 61 58 57 56 56 57 54 51 48 41 43 42 44 41 37 32 20
152 152 147 145 146 146 145 144 141 137 140 137 140 146 149 153 156 153 151 148 145 142 142 139 135 133 129 126 122 119 118 118 117 116 111 107 104 99 97 93 89 88 83 81 78 73 68 63 59 58 56 53 55 53 49 47 43 42 44 47 38 34 30
150 152 149 146 143 143 144 142 142 142 140 140 146 150 154 153 155 154 151 147 146 144 142 141 136 135 134 133 131 127 124 123 122 114 110 106 103 101 98 96 97 96 93 88 85 81 80 74 65 61 55 54 52 51 51 47 44 45 43 42 45 37 30
145 144 139 136 135 135 134 135 134 135 141 143 148 152 154 155 151 153 149 147 143 143 144 141 139 138 138 138 138 137 133 132 129 123 113 108 105 102 100 100 99 100 102 99 92 87 82 81 74 67 58 56 51 50 49 47 45 43 42 43 39 34 32
133 134 133 127 121 125 129 128 133 139 143 142 144 149 151 150 149 147 146 144 143 144 147 145 146 146 141 143 143 142 142 139 139 134 128 117 109 108 106 100 103 103 93 81 58 57 46 27 64 74 60 53 51 50 50 48 47 45 46 44 44 39 36
132 131 131 133 132 131 134 139 142 144 144 145 142 143 146 150 152 151 149 146 146 147 147 146 137 143 147 147 147 142 141 143 145 145 140 131 117 109 106 109 93 97 104 100 93 88 79 66 47 46 48 41 43 54 53 49 46 46 46 45 39 35 36
137 136 133 128 133 138 141 143 146 146 143 142 143 143 146 148 152 154 154 152 151 152 146 137 135 139 133 136 141 144 148 146 147 152 154 151 139 130 125 122 125 122 117 111 101 97 94 92 89 81 66 48 29 24 48 55 51 41 48 49 41 38 38
141 136 135 138 142 143 143 146 147 147 143 141 141 143 148 152 150 150 150 153 153 152 147 133 147 143 144 144 141 142 143 147 153 156 159 155 144 143 138 138 132 136 136 131 129 117 104 99 97 91 83 73 63 48 32 27 35 52 45 51 46 39 36
144 143 143 142 138 140 144 143 143 143 145 144 143 148 148 145 149 152 154 155 154 149 143 145 152 150 146 142 134 143 147 148 158 156 156 157 149 149 149 144 143 134 125 145 146 133 127 117 104 108 113 107 84 66 57 43 18 16 42 50 50 47 31
141 143 139 135 136 136 140 143 140 140 137 140 144 139 143 146 147 156 159 157 152 149 145 153 155 152 145 142 146 145 142 147 148 151 156 155 153 152 157 158 155 154 156 170 153 149 142 139 140 140 130 103 98 116 119 115 114 49 22 42 44 49 35
134 135 135 133 132 133 135 135 138 141 147 151 151 151 153 153 155 158 158 155 150 149 140 148 155 150 145 145 141 140 138 139 145 141 145 147 154 143 162 170 165 161 165 171 167 168 154 151 142 129 120 108 93 76 62 53 37 29 37 37 47 52 44
127 130 133 136 136 137 141 149 150 151 147 145 143 143 146 152 154 157 155 153 148 144 137 152 154 152 146 145 146 148 146 148 146 146 145 152 155 155 164 176 166 164 170 174 154 219 246 168 149 133 120 114 106 96 77 76 9 330 333 351 33 47 49
137 139 145 146 148 153 157 156 146 143 137 142 147 153 153 154 155 154 154 158 150 141 145 164 160 154 150 152 158 154 151 155 147 146 146 147 161 155 169 180 179 169 170 172 157 191 217 250 146 136 117 113 103 88 75 101 145 202 277 285 320 98 25
146 152 152 157 157 148 137 139 149 154 148 149 155 156 153 149 151 156 159 160 157 147 152 159 166 158 156 167 166 157 162 159 149 146 142 152 157 153 113 83 231 179 174 163 156 185 194 235 165 136 132 118 100 89 89 100 143 148 195 214 175 171 102
154 151 144 135 143 149 154 155 154 151 139 139 140 143 149 146 146 149 155 152 140 145 147 155 169 162 162 167 166 163 167 163 160 158 156 152 160 151 138 127 10 293 176 137 156 172 196 237 182 150 137 121 93 88 82 85 106 119 136 169 126 180 151
143 144 151 168 162 151 136 122 140 139 131 128 131 141 144 145 148 148 144 147 156 154 148 156 169 169 165 170 178 169 170 168 167 160 163 161 157 153 146 141 126 86 112 140 156 165 187 250 253 158 171 122 100 101 129 121 35 8 79 41 53 52 52
148 151 159 152 142 118 134 142 140 141 136 128 131 136 142 141 140 138 151 154 156 158 156 157 163 172 166 169 176 177 171 173 163 164 165 164 167 161 163 148 132 102 142 138 147 149 156 185 279 197 193 108 44 66 130 167 133 259 141 109 71 60 48
142 143 142 138 131 130 130 141 148 141 143 144 141 140 138 142 142 139 143 147 152 159 151 159 158 171 166 166 175 202 181 167 164 163 165 169 167 168 164 152 143 127 143 129 125 129 134 149 194 220 72 70 87 143 220 164 210 245 336 351 16 34 32
149 149 144 149 142 137 142 141 138 146 143 136 129 131 144 146 144 144 146 154 157 160 161 166 163 163 166 167 173 205 205 156 172 182 171 171 172 160 153 134 116 123 143 130 126 122 126 139 184 92 112 131 127 131 234 221 273 290 356 2 359 24 28
151 140 148 151 145 141 145 143 141 147 144 144 145 145 145 147 149 152 157 157 162 169 170 171 168 169 161 170 168 180 172 159 173 189 175 168 166 153 156 157 129 139 140 131 121 111 95 73 85 119 137 128 151 202 235 225 233 324 297 344 344 9 23